Wind_Speed
21 21 21 21 22 21 20 19 19 20 20 20 20 20 19 19 18 18 17 17 17 16 15 14 14 13 13 12 12 12 12 11 10 10 10 10 10 10 10 10 10 9 9 8 8 8 8 7 7
22 22 22 23 23 21 20 20 20 21 21 21 21 21 21 21 20 20 19 18 18 18 17 16 15 15 14 14 14 14 14 13 13 12 12 12 12 12 12 11 11 11 10 10 9 9 8 8 8
23 23 23 23 22 21 21 22 23 23 22 22 22 23 23 23 22 21 21 20 20 19 19 18 17 17 16 15 15 15 16 15 15 15 14 14 14 14 14 14 13 12 12 11 11 10 10 9 10
24 25 24 23 22 21 22 22 23 24 23 23 23 24 24 24 24 23 23 22 22 21 21 20 19 18 18 17 17 17 17 17 17 17 17 16 16 16 16 15 15 14 13 13 12 12 11 11 11
25 25 25 24 22 22 23 23 24 25 24 23 23 24 24 25 25 25 24 24 23 22 22 22 21 20 20 19 19 19 18 18 18 18 18 18 18 17 17 17 16 15 14 14 14 13 13 13 13
26 26 26 25 23 22 23 24 24 25 25 25 24 24 25 25 26 26 26 26 25 24 24 24 24 23 22 21 21 20 20 20 20 19 19 19 18 18 18 18 18 17 16 15 15 15 15 15 15
26 26 26 25 23 23 23 24 25 25 26 26 26 25 25 27 27 26 26 26 27 26 26 25 25 25 24 23 23 22 22 22 21 21 21 20 20 20 19 19 19 19 18 17 17 17 17 17 17
27 27 26 25 24 24 24 25 26 26 25 26 26 26 26 27 28 28 28 28 27 27 27 27 27 26 26 26 25 24 24 24 23 23 23 22 22 21 21 21 21 20 20 20 20 19 19 19 19
27 28 27 26 25 25 25 26 26 26 26 26 26 26 27 28 29 29 29 30 29 28 28 28 28 27 27 27 27 26 26 25 25 25 25 24 24 23 23 23 23 22 22 22 22 21 21 21 21
28 27 26 25 25 26 26 26 27 27 27 27 26 26 28 29 30 31 31 31 31 30 30 30 30 29 28 28 28 28 28 27 27 27 26 26 26 25 25 25 24 24 24 24 24 24 23 23 23
27 26 25 25 25 26 26 26 27 28 27 27 27 28 28 29 30 31 30 31 31 30 30 31 31 31 30 30 30 30 30 29 29 29 28 27 27 27 26 26 26 26 26 25 25 25 25 25 25
27 26 26 26 26 26 26 27 27 27 28 28 28 28 28 29 30 30 30 31 31 31 31 31 31 31 32 32 32 32 31 31 31 30 30 29 28 29 29 28 27 27 27 27 27 27 27 28 28
27 27 27 27 27 27 27 27 27 27 28 29 29 29 28 29 30 30 31 31 31 32 32 32 32 32 33 33 33 33 33 33 32 32 31 31 30 30 30 30 30 29 29 30 30 30 30 30 30
27 28 28 28 28 28 28 27 27 26 27 29 29 28 29 29 30 30 31 31 32 32 32 33 34 34 34 34 35 34 34 34 34 34 34 34 32 32 32 32 32 32 31 32 33 32 32 32 32
28 28 28 28 29 29 28 27 27 27 28 29 29 29 29 29 30 31 32 32 33 33 34 34 35 35 36 35 35 35 35 35 35 34 35 36 35 34 34 34 34 34 34 34 34 35 35 34 34
28 29 29 28 29 29 29 28 27 28 29 29 29 29 29 29 29 30 32 33 34 34 35 35 35 36 36 36 36 36 36 36 36 36 35 36 36 36 35 36 36 35 35 35 36 36 35 35 35
28 29 29 28 28 28 29 28 27 29 29 28 29 29 29 29 29 29 31 33 35 35 35 36 35 35 36 36 36 37 36 36 37 37 37 37 36 37 37 36 36 36 36 36 35 36 36 36 35
27 28 28 28 29 30 30 29 29 30 30 29 30 30 30 30 29 29 31 33 34 35 35 35 36 35 36 36 37 37 36 36 37 38 37 36 36 36 37 36 36 36 36 36 36 36 37 38 37
27 28 28 28 29 30 31 30 29 30 31 31 30 30 30 29 29 30 31 32 33 33 34 35 35 36 37 36 37 38 37 37 37 38 38 37 37 36 36 37 37 37 36 37 38 37 38 38 38
26 27 28 29 29 31 31 31 30 30 31 31 31 30 30 29 30 30 30 32 32 34 34 35 36 36 37 38 38 38 38 38 38 39 38 38 39 38 37 37 37 38 38 38 39 39 38 37 38
27 27 28 29 30 31 31 31 31 31 31 32 31 31 31 31 31 31 31 33 34 35 35 35 36 36 37 38 38 38 39 40 40 40 40 39 39 38 38 37 37 38 39 39 39 39 39 39 39
26 26 27 28 29 30 31 32 30 30 31 32 32 32 32 32 32 33 33 33 34 35 35 35 36 37 37 37 39 40 40 39 39 39 40 41 40 40 38 38 39 38 38 39 39 39 39 40 40
25 26 27 28 29 30 30 32 30 30 30 31 31 32 32 33 33 33 33 34 34 35 35 34 36 38 38 38 38 39 40 40 40 40 41 41 40 40 40 40 40 39 39 39 39 40 40 40 39
26 26 26 27 28 29 29 31 30 29 29 29 30 31 31 32 33 33 34 34 35 35 36 35 35 37 38 39 39 40 40 41 41 40 41 41 40 40 40 40 40 40 40 40 41 41 41 40 40
25 25 26 26 27 28 28 29 29 27 28 28 29 29 30 31 32 33 34 34 35 36 37 37 37 38 39 40 40 41 41 41 42 41 41 42 43 42 42 42 41 41 41 41 41 42 41 41 41
24 24 25 26 26 26 26 28 27 26 27 28 28 29 30 31 32 33 34 34 35 36 37 38 38 39 40 40 40 41 42 42 42 42 43 43 44 44 44 43 43 42 42 43 43 43 42 42 42
23 23 24 25 25 26 27 27 27 26 27 28 29 30 30 30 31 32 34 35 36 36 37 37 38 39 39 40 41 41 41 42 42 43 44 44 44 45 45 44 44 44 44 45 45 44 43 43 44
22 22 23 24 25 26 26 25 25 25 26 27 28 28 29 30 30 32 33 34 35 36 37 38 38 39 39 40 41 41 41 42 43 44 44 45 44 45 45 45 45 46 46 46 45 45 45 44 44
20 21 22 23 25 25 25 24 25 25 25 26 26 26 27 29 30 31 32 32 33 35 36 37 38 39 40 41 41 42 43 43 43 43 44 45 45 46 46 46 46 47 47 47 46 46 46 46 46
21 21 22 23 24 25 26 25 24 25 25 26 27 27 27 28 29 30 31 32 33 34 35 37 39 40 40 41 42 42 44 45 45 44 44 45 46 47 48 48 48 48 47 47 46 46 46 46 46
Wind_Direction
252 252 253 252 252 252 254 253 250 248 247 245 244 244 245 245 245 244 243 242 241 240 240 238 237 238 237 236 237 239 239 236 237 239 240 242 243 244 246 248 246 247 251 256 259 259 255 256 257
253 255 254 253 252 252 252 252 250 249 248 247 246 246 245 244 244 245 244 242 241 240 239 239 237 237 237 236 237 238 240 239 240 242 243 245 247 249 250 251 251 250 252 256 259 260 258 258 257
256 256 256 255 253 252 251 250 250 250 249 247 246 246 245 244 243 243 243 241 240 239 239 240 239 238 238 238 238 239 240 242 243 244 246 247 249 249 250 251 252 253 255 257 257 257 256 257 259
256 255 255 255 254 252 250 248 249 250 249 247 245 245 245 244 242 241 241 241 240 239 239 238 239 239 238 239 240 241 242 243 245 245 247 248 249 250 251 253 253 255 256 258 258 257 257 260 262
254 253 254 256 256 253 252 249 249 249 249 246 244 244 243 242 241 240 241 241 242 241 240 239 239 240 239 240 241 242 242 244 246 246 246 248 250 252 253 254 255 256 257 259 259 259 260 262 263
253 252 254 255 256 254 252 250 248 248 248 246 242 243 242 241 240 240 240 241 242 241 241 241 239 240 240 241 243 243 243 244 246 247 247 248 250 252 253 254 256 258 259 259 260 261 263 264 265
253 253 253 252 252 254 254 252 251 251 251 248 245 244 242 241 241 240 240 241 242 242 242 243 242 240 240 241 243 244 244 245 247 248 249 250 250 251 252 253 255 257 259 259 260 262 264 265 266
254 253 251 251 252 254 254 253 253 253 252 250 248 246 244 243 242 241 240 241 242 243 244 244 244 242 242 242 243 245 244 245 247 249 249 249 251 252 252 253 254 255 257 259 260 262 264 266 266
254 252 252 253 254 254 254 254 254 253 251 250 250 249 246 244 243 242 242 241 241 242 244 245 244 243 243 243 243 245 246 246 247 249 250 251 251 252 253 253 254 256 258 260 261 263 264 266 267
253 254 254 254 254 254 253 254 252 252 253 252 250 249 247 245 245 243 242 242 241 241 243 245 243 243 244 244 244 245 246 247 249 249 252 252 251 252 253 253 255 257 258 259 261 263 265 266 268
253 253 253 254 255 255 254 254 253 253 253 251 250 249 247 246 246 244 242 242 240 240 242 243 242 243 245 245 245 246 246 248 249 250 253 253 252 252 253 254 256 257 258 259 261 264 266 267 269
253 253 253 255 256 256 256 256 255 254 254 251 249 249 248 246 244 243 242 241 240 240 241 241 242 242 244 245 246 247 247 248 249 251 253 254 253 253 254 254 256 258 260 261 263 265 267 268 269
252 253 253 254 255 256 256 257 256 255 255 253 250 248 247 247 246 245 243 241 240 240 241 241 241 243 245 245 247 247 246 248 249 250 252 254 254 254 254 255 256 258 260 262 264 266 267 269 270
252 252 252 253 255 256 256 257 257 256 255 254 252 250 245 246 246 246 244 242 240 240 241 241 242 243 243 245 246 247 247 248 250 251 252 253 256 256 256 256 257 258 261 263 264 265 267 269 270
252 252 252 254 255 255 256 256 256 257 255 254 252 251 247 248 249 247 246 244 242 241 241 242 242 242 244 244 246 247 247 249 250 251 253 254 255 256 256 257 257 259 262 263 265 266 268 269 270
254 253 254 255 255 255 256 256 255 257 255 253 252 252 249 249 251 250 247 245 243 241 242 243 244 244 245 245 247 247 248 249 250 251 253 255 256 255 257 258 259 260 262 264 265 267 268 268 270
255 255 255 255 256 256 257 257 255 255 255 252 251 252 251 249 251 251 247 246 245 243 243 243 243 244 244 245 247 249 250 250 250 252 253 255 257 257 257 258 259 261 262 264 266 267 268 269 269
257 256 256 256 257 257 257 258 256 254 254 253 252 252 253 252 252 251 248 246 245 244 243 243 243 244 244 244 246 248 249 250 251 252 253 255 257 258 257 258 259 262 264 264 266 268 269 269 269
257 257 257 257 259 258 258 258 255 253 253 253 253 253 253 253 253 253 250 248 247 245 243 244 244 245 246 245 245 246 248 249 250 252 253 254 255 258 260 260 261 262 264 265 265 268 270 270 271
259 258 259 259 260 260 258 257 254 253 252 253 254 254 253 252 252 252 251 251 249 247 245 246 247 247 246 246 247 248 248 249 251 253 255 256 257 259 261 262 262 264 265 265 266 269 270 271 271
260 260 260 261 262 261 260 257 254 253 252 253 254 255 255 253 252 253 252 251 251 250 249 248 248 248 247 247 248 249 249 250 252 254 255 258 259 260 261 262 264 266 266 265 267 268 269 270 272
262 261 261 262 263 262 261 260 255 254 253 253 254 255 256 255 254 253 252 251 251 251 251 251 249 248 248 248 249 250 252 253 254 256 257 258 259 260 261 264 265 266 266 265 265 267 269 270 271
263 263 262 262 264 264 262 263 258 255 254 253 254 254 255 255 254 253 252 251 251 252 252 253 253 251 252 251 251 252 254 254 256 257 258 258 260 261 263 265 266 267 266 264 265 267 269 269 269
263 263 263 263 264 265 263 264 261 257 256 255 254 255 255 255 253 253 252 252 252 252 252 252 254 254 253 253 253 254 255 255 257 258 258 258 260 263 265 266 267 268 268 266 266 267 269 269 268
263 264 266 265 264 265 265 264 262 260 258 255 255 255 255 255 254 254 253 252 253 252 252 252 253 254 254 254 255 255 256 256 257 258 258 259 261 263 264 266 267 268 270 270 270 270 270 268 268
263 264 266 268 268 266 265 265 264 263 261 258 257 256 256 256 256 254 254 253 254 253 253 253 254 254 255 255 256 256 257 257 258 258 259 261 262 263 264 265 266 268 269 270 271 271 269 268 268
263 265 267 269 269 270 268 267 265 264 262 261 259 258 256 255 255 255 255 255 255 255 255 255 255 254 255 255 256 257 257 257 258 259 260 262 263 263 264 264 266 267 268 270 270 270 269 269 269
265 267 268 270 271 272 271 269 266 264 264 264 263 261 258 257 256 256 257 257 257 256 256 256 256 256 256 257 257 257 257 258 259 260 260 261 263 264 264 264 265 266 267 269 269 269 269 269 270
267 267 267 268 270 273 275 272 270 270 269 267 265 264 262 260 260 259 259 258 257 257 256 256 257 258 258 257 258 258 258 259 261 261 262 262 263 264 264 264 265 266 267 268 267 268 269 270 270
267 270 271 270 271 272 274 275 274 274 272 270 268 266 265 264 263 262 262 261 259 259 258 257 258 259 258 258 259 259 260 260 261 262 263 264 264 264 264 265 266 266 266 267 268 268 269 270 270
Height
5824 5824 5825 5826 5827 5827 5827 5827 5828 5828 5829 5830 5831 5833 5834 5836 5838 5842 5842 5841 5842 5844 5845 5846 5847 5848 5849 5850 5851 5852 5853 5854 5855 5855 5856 5857 5857 5858 5858 5859 5859 5859 5859 5860 5860 5860 5860 5860 5860
5819 5820 5821 5821 5821 5822 5823 5823 5823 5824 5824 5825 5827 5828 5830 5832 5833 5835 5836 5838 5839 5840 5841 5843 5844 5845 5847 5848 5849 5850 5851 5852 5853 5854 5854 5855 5856 5856 5857 5857 5857 5858 5858 5858 5858 5858 5858 5858 5859
5814 5815 5816 5816 5816 5817 5818 5818 5818 5819 5820 5821 5822 5823 5825 5827 5829 5831 5832 5834 5835 5837 5838 5839 5841 5842 5844 5845 5846 5848 5849 5850 5851 5852 5852 5853 5854 5854 5855 5855 5856 5856 5856 5857 5857 5857 5857 5857 5857
5809 5810 5811 5811 5812 5813 5813 5813 5813 5814 5815 5816 5817 5818 5820 5822 5824 5826 5828 5829 5831 5832 5834 5836 5837 5839 5841 5842 5843 5845 5846 5847 5848 5849 5850 5851 5851 5852 5853 5853 5854 5854 5854 5855 5855 5855 5855 5855 5855
5804 5804 5805 5805 5807 5808 5807 5808 5808 5808 5809 5811 5812 5813 5815 5817 5819 5821 5823 5825 5826 5828 5830 5832 5833 5835 5837 5839 5840 5841 5843 5844 5845 5845 5846 5847 5848 5849 5850 5851 5851 5852 5852 5852 5853 5853 5853 5853 5853
5798 5799 5800 5800 5802 5802 5802 5802 5803 5803 5804 5805 5806 5808 5810 5811 5813 5816 5818 5820 5821 5823 5825 5827 5829 5831 5833 5835 5836 5837 5839 5840 5841 5842 5843 5844 5845 5846 5847 5848 5848 5849 5849 5850 5850 5850 5850 5850 5850
5793 5793 5793 5795 5796 5797 5797 5797 5797 5798 5799 5800 5801 5803 5804 5806 5808 5810 5812 5814 5816 5818 5820 5822 5824 5826 5828 5830 5832 5833 5835 5836 5838 5839 5840 5841 5842 5842 5843 5844 5845 5846 5846 5847 5847 5847 5847 5847 5847
5786 5787 5788 5789 5791 5792 5792 5791 5792 5792 5793 5794 5796 5797 5800 5801 5802 5804 5806 5808 5811 5813 5815 5817 5819 5821 5823 5825 5827 5829 5830 5832 5833 5835 5836 5836 5838 5839 5840 5840 5841 5842 5843 5843 5843 5844 5844 5844 5843
5780 5782 5782 5784 5785 5786 5786 5786 5786 5786 5788 5789 5790 5791 5793 5794 5796 5798 5800 5802 5805 5807 5809 5811 5813 5816 5818 5820 5822 5824 5825 5827 5828 5830 5831 5832 5833 5834 5835 5836 5837 5837 5838 5839 5839 5839 5839 5839 5839
5773 5775 5777 5778 5779 5779 5779 5780 5780 5780 5781 5783 5784 5785 5786 5788 5789 5791 5793 5796 5798 5801 5803 5805 5807 5810 5812 5815 5816 5818 5820 5822 5823 5825 5826 5827 5828 5829 5831 5831 5832 5833 5833 5834 5834 5835 5835 5834 5834
5767 5770 5771 5771 5772 5772 5773 5773 5774 5774 5775 5776 5777 5778 5779 5781 5782 5784 5787 5789 5792 5794 5796 5799 5801 5804 5806 5809 5811 5813 5814 5816 5818 5819 5821 5822 5823 5824 5825 5826 5827 5827 5828 5829 5829 5829 5829 5829 5828
5762 5763 5764 5765 5765 5765 5766 5766 5767 5768 5769 5770 5770 5771 5773 5774 5776 5778 5780 5782 5785 5787 5790 5792 5794 5797 5800 5802 5804 5807 5808 5810 5812 5814 5815 5816 5817 5818 5820 5820 5821 5822 5822 5823 5823 5823 5823 5823 5822
5755 5757 5757 5758 5758 5759 5759 5760 5760 5761 5761 5762 5763 5764 5766 5767 5769 5771 5773 5775 5777 5780 5783 5785 5788 5790 5793 5796 5798 5800 5802 5803 5805 5807 5808 5810 5811 5812 5813 5814 5815 5816 5816 5816 5817 5817 5816 5816 5815
5748 5749 5750 5751 5751 5751 5752 5753 5753 5755 5754 5754 5756 5757 5758 5760 5762 5764 5766 5768 5770 5773 5775 5778 5781 5784 5786 5789 5791 5793 5795 5797 5799 5800 5802 5803 5804 5805 5807 5807 5808 5809 5809 5809 5810 5810 5809 5809 5808
5741 5742 5743 5744 5744 5744 5745 5746 5747 5747 5747 5748 5749 5750 5752 5753 5754 5756 5758 5760 5762 5764 5767 5770 5773 5776 5779 5782 5784 5786 5788 5789 5791 5793 5794 5796 5797 5798 5799 5800 5801 5801 5802 5802 5802 5802 5801 5801 5800
5733 5734 5736 5737 5737 5737 5739 5739 5740 5739 5740 5742 5742 5743 5744 5746 5747 5749 5750 5752 5754 5756 5759 5762 5765 5768 5771 5774 5776 5778 5780 5781 5783 5785 5787 5788 5789 5790 5791 5792 5793 5793 5794 5794 5794 5794 5793 5793 5792
5725 5726 5728 5729 5729 5729 5730 5732 5733 5732 5733 5735 5736 5736 5737 5739 5740 5741 5743 5745 5746 5749 5752 5754 5757 5760 5763 5765 5768 5770 5772 5774 5775 5777 5779 5780 5781 5782 5783 5784 5785 5785 5785 5785 5785 5785 5784 5784 5783
5719 5719 5720 5721 5721 5722 5722 5724 5725 5725 5726 5728 5729 5730 5731 5732 5733 5734 5735 5737 5739 5741 5743 5746 5749 5752 5754 5757 5759 5762 5764 5766 5767 5769 5770 5772 5773 5774 5774 5775 5776 5776 5777 5777 5777 5776 5775 5775 5774
5711 5711 5712 5713 5713 5714 5715 5716 5718 5718 5719 5720 5722 5723 5724 5725 5727 5727 5729 5730 5732 5733 5736 5739 5741 5743 5745 5748 5751 5754 5756 5757 5759 5760 5762 5763 5764 5765 5766 5767 5767 5768 5768 5768 5768 5767 5767 5765 5764
5703 5704 5705 5706 5706 5706 5707 5708 5710 5710 5711 5713 5714 5715 5717 5717 5718 5720 5721 5723 5725 5726 5728 5731 5733 5735 5738 5740 5742 5745 5747 5749 5751 5752 5753 5754 5755 5756 5757 5758 5759 5759 5759 5759 5759 5758 5758 5756 5755
5697 5697 5698 5698 5698 5698 5698 5700 5702 5703 5704 5705 5706 5707 5709 5710 5711 5712 5714 5716 5717 5719 5721 5723 5725 5727 5729 5731 5733 5735 5737 5739 5742 5743 5745 5745 5747 5748 5748 5749 5750 5750 5750 5750 5749 5749 5749 5748 5746
5690 5690 5690 5690 5690 5690 5691 5691 5695 5695 5696 5697 5698 5699 5701 5702 5703 5704 5706 5707 5709 5710 5712 5714 5716 5718 5720 5723 5725 5726 5728 5730 5732 5734 5735 5737 5737 5738 5739 5740 5740 5740 5740 5740 5740 5739 5739 5738 5737
5683 5683 5682 5682 5681 5682 5683 5682 5686 5687 5688 5689 5690 5691 5692 5693 5694 5696 5697 5699 5701 5702 5704 5705 5707 5709 5712 5714 5716 5717 5719 5721 5723 5724 5726 5727 5728 5729 5729 5730 5730 5731 5730 5730 5730 5729 5729 5728 5727
5676 5676 5675 5674 5674 5674 5676 5675 5676 5678 5680 5681 5681 5682 5683 5685 5686 5687 5689 5690 5692 5694 5695 5697 5699 5700 5702 5704 5706 5708 5710 5712 5714 5715 5716 5718 5719 5719 5720 5720 5720 5720 5720 5720 5719 5719 5718 5718 5717
5669 5669 5668 5667 5666 5667 5668 5667 5669 5670 5671 5672 5673 5674 5675 5676 5677 5679 5680 5682 5683 5685 5686 5688 5690 5691 5693 5695 5697 5699 5701 5702 5704 5706 5707 5708 5709 5710 5710 5710 5710 5710 5710 5710 5709 5708 5708 5707 5707
5662 5662 5662 5660 5659 5660 5659 5659 5662 5662 5663 5663 5664 5665 5666 5667 5668 5669 5671 5673 5674 5676 5677 5679 5681 5682 5684 5685 5687 5689 5691 5693 5694 5695 5697 5698 5698 5699 5699 5700 5700 5699 5699 5699 5698 5698 5697 5696 5696
5655 5654 5654 5653 5652 5651 5651 5652 5654 5655 5654 5655 5655 5656 5657 5658 5659 5660 5662 5664 5665 5666 5668 5669 5671 5672 5674 5675 5677 5679 5680 5682 5683 5685 5686 5687 5687 5688 5688 5688 5688 5688 5688 5687 5687 5687 5686 5685 5685
5648 5648 5647 5646 5644 5643 5644 5645 5646 5646 5646 5646 5646 5647 5648 5649 5650 5651 5652 5654 5655 5657 5658 5659 5661 5662 5664 5665 5667 5668 5670 5671 5672 5673 5675 5675 5676 5676 5676 5676 5676 5676 5676 5676 5675 5675 5674 5674 5673
5642 5642 5640 5639 5638 5637 5636 5640 5639 5639 5638 5638 5638 5639 5639 5640 5641 5642 5643 5644 5645 5646 5648 5649 5650 5652 5653 5655 5656 5657 5658 5659 5660 5661 5662 5663 5664 5664 5664 5664 5664 5664 5663 5663 5663 5662 5662 5661 5660
5634 5634 5634 5633 5632 5630 5629 5634 5632 5631 5630 5630 5630 5630 5631 5631 5632 5632 5633 5634 5635 5636 5637 5638 5640 5641 5642 5643 5645 5646 5647 5648 5648 5649 5649 5650 5651 5651 5651 5651 5651 5651 5651 5650 5650 5649 5649 5648 5648